Zurück zum Katalog

TEE-01B

AktivMilitärSSO
NORAD 60012·PAYLOAD·🇨🇳 China
Dieser Satellitenname wurde noch nicht durch offizielle Quellen bestätigt.

Gestartet Jun 6, 2024 von Jiuquan Satellite Launch Center

Loading…

Nächste Überflüge (nächste 24 Stunden)

TLE

AktuellSource: Space-Track

Epoche: Sep 14, 2026, 13:45 UTC

1 60012U 24110A   26257.57306028  .00003760  00000-0  23781-3 0  9990
2 60012  97.5681 348.5006 0022542 248.9160 110.9659 15.09427370125421

Verfolge TEE-01B in Echtzeit mit AllMySat

Download on the App Store